Time,TemperatureF,DewpointF,PressureIn,WindDirection,WindDirectionDegrees,WindSpeedMPH,WindSpeedGustMPH,Humidity,HourlyPrecipIn,Conditions,Clouds,dailyrainin,SoftwareType,DateUTC
2013-09-19 00:02:00,73.9,69.0,29.90,South,169,3.0,8.0,85,0.00,,,0.09,weatherlink.com 1.10,2013-09-19 05:02:00,
2013-09-19 00:17:00,74.2,69.0,29.89,South,169,6.0,13.0,84,0.00,,,0.09,weatherlink.com 1.10,2013-09-19 05:17:00,
2013-09-19 00:32:00,74.5,69.0,29.90,SSW,207,7.0,12.0,83,0.00,,,0.00,weatherlink.com 1.10,2013-09-19 05:32:00,
2013-09-19 00:47:00,74.6,69.0,29.90,SSW,192,3.0,10.0,83,0.00,,,0.00,weatherlink.com 1.10,2013-09-19 05:47:00,
2013-09-19 01:02:00,74.4,69.0,29.90,South,173,5.0,8.0,83,0.00,,,0.00,weatherlink.com 1.10,2013-09-19 06:02:00,
2013-09-19 01:17:00,74.2,69.0,29.89,SSE,165,4.0,8.0,83,0.00,,,0.00,weatherlink.com 1.10,2013-09-19 06:17:00,
2013-09-19 01:32:00,73.9,69.0,29.89,SW,217,4.0,9.0,84,0.00,,,0.00,weatherlink.com 1.10,2013-09-19 06:32:00,
2013-09-19 01:47:00,73.6,69.0,29.90,South,182,5.0,7.0,84,0.00,,,0.00,weatherlink.com 1.10,2013-09-19 06:47:00,
2013-09-19 02:02:00,73.4,69.0,29.90,South,179,9.0,9.0,85,0.00,,,0.00,weatherlink.com 1.10,2013-09-19 07:02:00,
2013-09-19 02:17:00,73.4,69.0,29.90,South,184,2.0,8.0,85,0.00,,,0.00,weatherlink.com 1.10,2013-09-19 07:17:00,
2013-09-19 02:32:00,73.2,69.0,29.90,South,186,2.0,9.0,85,0.00,,,0.00,weatherlink.com 1.10,2013-09-19 07:32:00,
2013-09-19 02:47:00,72.8,68.0,29.90,SSE,161,3.0,7.0,86,0.00,,,0.00,weatherlink.com 1.10,2013-09-19 07:47:00,
2013-09-19 03:02:00,72.6,68.0,29.89,South,173,1.0,7.0,86,0.00,,,0.00,weatherlink.com 1.10,2013-09-19 08:02:00,
2013-09-19 03:17:00,72.1,68.0,29.89,SSE,167,2.0,5.0,87,0.00,,,0.00,weatherlink.com 1.10,2013-09-19 08:17:00,
2013-09-19 03:32:00,71.8,68.0,29.89,South,169,1.0,6.0,88,0.00,,,0.00,weatherlink.com 1.10,2013-09-19 08:32:00,
2013-09-19 03:47:00,71.6,68.0,29.89,SSE,164,3.0,5.0,88,0.00,,,0.00,weatherlink.com 1.10,2013-09-19 08:47:00,
2013-09-19 04:02:00,71.3,68.0,29.89,SSE,157,3.0,6.0,89,0.00,,,0.00,weatherlink.com 1.10,2013-09-19 09:02:00,
2013-09-19 04:17:00,71.4,68.0,29.89,SSE,168,3.0,6.0,89,0.00,,,0.00,weatherlink.com 1.10,2013-09-19 09:17:00,
2013-09-19 04:32:00,71.5,68.0,29.89,SSE,167,1.0,6.0,88,0.00,,,0.00,weatherlink.com 1.10,2013-09-19 09:32:00,
2013-09-19 04:48:00,71.6,68.0,29.90,SSW,194,4.0,7.0,88,0.00,,,0.00,weatherlink.com 1.10,2013-09-19 09:48:00,
2013-09-19 05:03:00,71.8,68.0,29.89,SSW,200,3.0,8.0,88,0.00,,,0.00,weatherlink.com 1.10,2013-09-19 10:03:00,
2013-09-19 05:18:00,71.9,68.0,29.89,South,176,7.0,8.0,88,0.00,,,0.00,weatherlink.com 1.10,2013-09-19 10:18:00,
2013-09-19 05:33:00,72.1,68.0,29.89,South,184,7.0,8.0,87,0.00,,,0.00,weatherlink.com 1.10,2013-09-19 10:33:00,
2013-09-19 05:48:00,72.1,68.0,29.89,SSW,194,3.0,9.0,87,0.00,,,0.00,weatherlink.com 1.10,2013-09-19 10:48:00,
2013-09-19 06:03:00,71.9,68.0,29.89,South,169,1.0,8.0,87,0.00,,,0.00,weatherlink.com 1.10,2013-09-19 11:03:00,
2013-09-19 06:18:00,71.7,68.0,29.90,SSW,194,3.0,7.0,87,0.00,,,0.00,weatherlink.com 1.10,2013-09-19 11:18:00,
2013-09-19 06:33:00,71.4,67.0,29.90,South,190,2.0,6.0,87,0.00,,,0.00,weatherlink.com 1.10,2013-09-19 11:33:00,
2013-09-19 06:48:00,71.1,67.0,29.90,South,178,0.0,7.0,88,0.00,,,0.00,weatherlink.com 1.10,2013-09-19 11:48:00,
2013-09-19 07:03:00,71.1,67.0,29.90,SSW,197,3.0,7.0,88,0.00,,,0.00,weatherlink.com 1.10,2013-09-19 12:03:00,
2013-09-19 07:18:00,71.3,68.0,29.90,South,186,3.0,8.0,88,0.00,,,0.00,weatherlink.com 1.10,2013-09-19 12:18:00,
2013-09-19 07:33:00,71.5,68.0,29.90,South,179,5.0,11.0,88,0.00,,,0.00,weatherlink.com 1.10,2013-09-19 12:33:00,
2013-09-19 07:48:00,71.7,68.0,29.90,South,184,0.0,9.0,87,0.00,,,0.00,weatherlink.com 1.10,2013-09-19 12:48:00,
2013-09-19 08:03:00,71.9,68.0,29.90,South,186,2.0,7.0,87,0.00,,,0.00,weatherlink.com 1.10,2013-09-19 13:03:00,
2013-09-19 08:18:00,72.8,68.0,29.90,South,188,6.0,8.0,86,0.00,,,0.00,weatherlink.com 1.10,2013-09-19 13:18:00,
2013-09-19 08:33:00,74.2,69.0,29.90,South,189,8.0,11.0,83,0.00,,,0.00,weatherlink.com 1.10,2013-09-19 13:33:00,
2013-09-19 08:48:00,75.2,69.0,29.90,South,180,8.0,10.0,81,0.00,,,0.00,weatherlink.com 1.10,2013-09-19 13:48:00,
2013-09-19 09:03:00,75.5,69.0,29.91,SW,215,4.0,11.0,80,0.00,,,0.00,weatherlink.com 1.10,2013-09-19 14:03:00,
2013-09-19 09:18:00,76.1,69.0,29.91,SSW,205,5.0,14.0,79,0.00,,,0.00,weatherlink.com 1.10,2013-09-19 14:18:00,
2013-09-19 09:33:00,76.8,70.0,29.91,SSW,198,3.0,8.0,79,0.00,,,0.00,weatherlink.com 1.10,2013-09-19 14:33:00,
2013-09-19 09:48:00,77.6,70.0,29.91,SW,232,1.0,11.0,77,0.00,,,0.00,weatherlink.com 1.10,2013-09-19 14:48:00,
2013-09-19 10:03:00,79.5,70.0,29.91,South,179,8.0,15.0,73,0.00,,,0.00,weatherlink.com 1.10,2013-09-19 15:03:00,
2013-09-19 10:18:00,79.4,70.0,29.91,South,175,6.0,11.0,73,0.00,,,0.00,weatherlink.com 1.10,2013-09-19 15:18:00,
2013-09-19 10:33:00,80.7,71.0,29.91,South,187,3.0,11.0,71,0.00,,,0.00,weatherlink.com 1.10,2013-09-19 15:33:00,
2013-09-19 10:48:00,80.6,70.0,29.91,SSW,200,9.0,14.0,70,0.00,,,0.00,weatherlink.com 1.10,2013-09-19 15:48:00,
2013-09-19 11:03:00,81.1,70.0,29.91,SSW,193,7.0,10.0,70,0.00,,,0.00,weatherlink.com 1.10,2013-09-19 16:03:00,
2013-09-19 11:18:00,80.8,70.0,29.91,South,171,7.0,15.0,69,0.00,,,0.00,weatherlink.com 1.10,2013-09-19 16:18:00,
2013-09-19 11:33:00,80.3,70.0,29.91,SSE,165,7.0,13.0,70,0.00,,,0.00,weatherlink.com 1.10,2013-09-19 16:33:00,
2013-09-19 11:48:00,80.3,70.0,29.91,South,188,5.0,13.0,71,0.00,,,0.00,weatherlink.com 1.10,2013-09-19 16:48:00,
2013-09-19 12:03:00,82.3,72.0,29.91,South,190,8.0,13.0,70,0.00,,,0.00,weatherlink.com 1.10,2013-09-19 17:03:00,
2013-09-19 12:18:00,84.8,73.0,29.90,SW,235,5.0,12.0,67,0.00,,,0.00,weatherlink.com 1.10,2013-09-19 17:18:00,
2013-09-19 12:33:00,85.6,73.0,29.90,SSW,194,7.0,12.0,65,0.00,,,0.00,weatherlink.com 1.10,2013-09-19 17:33:00,
2013-09-19 12:49:00,86.1,72.0,29.90,SSW,209,7.0,11.0,62,0.00,,,0.00,weatherlink.com 1.10,2013-09-19 17:49:00,
2013-09-19 13:04:00,85.2,72.0,29.89,West,263,4.0,14.0,64,0.00,,,0.00,weatherlink.com 1.10,2013-09-19 18:04:00,
2013-09-19 13:19:00,84.9,73.0,29.89,SSW,196,5.0,8.0,67,0.00,,,0.00,weatherlink.com 1.10,2013-09-19 18:19:00,
2013-09-19 13:34:00,85.9,72.0,29.89,SSW,203,7.0,10.0,63,0.00,,,0.00,weatherlink.com 1.10,2013-09-19 18:34:00,
2013-09-19 13:49:00,85.0,71.0,29.88,SSW,200,8.0,13.0,63,0.00,,,0.00,weatherlink.com 1.10,2013-09-19 18:49:00,
2013-09-19 14:04:00,82.8,73.0,29.88,South,172,5.0,11.0,73,0.01,,,0.01,weatherlink.com 1.10,2013-09-19 19:04:00,
2013-09-19 14:19:00,82.3,72.0,29.87,SSW,204,2.0,9.0,71,0.01,,,0.01,weatherlink.com 1.10,2013-09-19 19:19:00,
2013-09-19 14:34:00,82.7,72.0,29.86,South,175,5.0,8.0,70,0.01,,,0.01,weatherlink.com 1.10,2013-09-19 19:34:00,
2013-09-19 14:49:00,84.7,73.0,29.85,South,179,7.0,8.0,67,0.01,,,0.01,weatherlink.com 1.10,2013-09-19 19:49:00,
2013-09-19 15:04:00,86.5,73.0,29.84,South,190,9.0,12.0,64,0.00,,,0.01,weatherlink.com 1.10,2013-09-19 20:04:00,
2013-09-19 15:19:00,87.7,72.0,29.84,South,189,8.0,16.0,60,0.00,,,0.01,weatherlink.com 1.10,2013-09-19 20:19:00,
2013-09-19 15:34:00,88.1,71.0,29.83,WSW,253,3.0,15.0,58,0.00,,,0.01,weatherlink.com 1.10,2013-09-19 20:34:00,
2013-09-19 15:49:00,89.2,72.0,29.82,SSW,209,5.0,12.0,57,0.00,,,0.01,weatherlink.com 1.10,2013-09-19 20:49:00,
2013-09-19 16:04:00,89.1,72.0,29.81,SSW,207,10.0,15.0,58,0.00,,,0.01,weatherlink.com 1.10,2013-09-19 21:04:00,
2013-09-19 16:19:00,88.1,72.0,29.80,SSW,196,2.0,19.0,59,0.00,,,0.01,weatherlink.com 1.10,2013-09-19 21:19:00,
2013-09-19 16:34:00,88.0,72.0,29.79,SW,229,6.0,16.0,60,0.00,,,0.01,weatherlink.com 1.10,2013-09-19 21:34:00,
2013-09-19 16:49:00,87.4,72.0,29.79,South,177,15.0,15.0,61,0.00,,,0.01,weatherlink.com 1.10,2013-09-19 21:49:00,
2013-09-19 17:04:00,87.0,72.0,29.78,SSE,163,6.0,18.0,61,0.00,,,0.01,weatherlink.com 1.10,2013-09-19 22:04:00,
2013-09-19 17:19:00,86.9,72.0,29.78,SSE,167,12.0,13.0,61,0.00,,,0.01,weatherlink.com 1.10,2013-09-19 22:19:00,
2013-09-19 17:34:00,86.8,72.0,29.78,South,180,10.0,18.0,61,0.00,,,0.01,weatherlink.com 1.10,2013-09-19 22:34:00,
2013-09-19 17:49:00,86.6,72.0,29.78,SSW,193,5.0,15.0,63,0.00,,,0.01,weatherlink.com 1.10,2013-09-19 22:49:00,
2013-09-19 18:04:00,86.4,71.0,29.78,SSW,196,7.0,18.0,61,0.00,,,0.01,weatherlink.com 1.10,2013-09-19 23:04:00,
2013-09-19 18:19:00,86.1,72.0,29.78,SSW,193,4.0,15.0,62,0.00,,,0.01,weatherlink.com 1.10,2013-09-19 23:19:00,
2013-09-19 18:34:00,85.5,71.0,29.78,SSE,165,2.0,8.0,63,0.00,,,0.01,weatherlink.com 1.10,2013-09-19 23:34:00,
2013-09-19 18:49:00,84.8,72.0,29.79,SSW,210,6.0,10.0,65,0.00,,,0.01,weatherlink.com 1.10,2013-09-19 23:49:00,
2013-09-19 19:04:00,84.2,72.0,29.79,SSE,150,7.0,12.0,67,0.00,,,0.01,weatherlink.com 1.10,2013-09-20 00:04:00,
2013-09-19 19:19:00,82.4,73.0,29.78,SSE,162,4.0,10.0,73,0.00,,,0.01,weatherlink.com 1.10,2013-09-20 00:19:00,
2013-09-19 19:34:00,81.9,73.0,29.78,South,182,7.0,14.0,74,0.00,,,0.01,weatherlink.com 1.10,2013-09-20 00:34:00,
2013-09-19 19:49:00,81.9,72.0,29.79,South,191,4.0,19.0,73,0.00,,,0.01,weatherlink.com 1.10,2013-09-20 00:49:00,
2013-09-19 20:04:00,81.8,73.0,29.80,South,180,4.0,13.0,74,0.00,,,0.01,weatherlink.com 1.10,2013-09-20 01:04:00,
2013-09-19 20:19:00,81.6,73.0,29.80,South,180,4.0,12.0,74,0.00,,,0.01,weatherlink.com 1.10,2013-09-20 01:19:00,
2013-09-19 20:34:00,81.4,72.0,29.80,SSW,192,9.0,15.0,74,0.00,,,0.01,weatherlink.com 1.10,2013-09-20 01:34:00,
2013-09-19 20:49:00,80.9,72.0,29.83,SSW,209,3.0,11.0,74,0.00,,,0.01,weatherlink.com 1.10,2013-09-20 01:49:00,
2013-09-19 21:04:00,80.8,71.0,29.84,SSE,164,6.0,15.0,72,0.00,,,0.01,weatherlink.com 1.10,2013-09-20 02:04:00,
2013-09-19 21:19:00,80.5,71.0,29.84,South,180,2.0,12.0,72,0.00,,,0.01,weatherlink.com 1.10,2013-09-20 02:19:00,
2013-09-19 21:34:00,79.9,70.0,29.84,SSW,210,3.0,10.0,72,0.00,,,0.01,weatherlink.com 1.10,2013-09-20 02:34:00,
2013-09-19 21:49:00,79.3,70.0,29.84,SW,230,0.0,7.0,73,0.00,,,0.01,weatherlink.com 1.10,2013-09-20 02:49:00,
2013-09-19 22:04:00,77.9,68.0,29.87,WNW,296,2.0,13.0,72,0.00,,,0.01,weatherlink.com 1.10,2013-09-20 03:04:00,
2013-09-19 22:19:00,74.1,67.0,29.88,NNW,334,5.0,14.0,78,0.00,,,0.01,weatherlink.com 1.10,2013-09-20 03:19:00,
2013-09-19 22:34:00,72.4,66.0,29.88,NNW,329,2.0,18.0,81,0.00,,,0.01,weatherlink.com 1.10,2013-09-20 03:34:00,
2013-09-19 22:49:00,71.1,67.0,29.89,NNW,331,7.0,14.0,87,0.04,,,0.05,weatherlink.com 1.10,2013-09-20 03:49:00,
2013-09-19 23:04:00,69.5,67.0,29.89,NW,322,0.0,8.0,90,0.05,,,0.06,weatherlink.com 1.10,2013-09-20 04:04:00,
2013-09-19 23:19:00,68.8,67.0,29.88,West,275,2.0,3.0,93,0.09,,,0.10,weatherlink.com 1.10,2013-09-20 04:19:00,
2013-09-19 23:35:00,68.3,67.0,29.89,WNW,298,0.0,4.0,94,0.10,,,0.11,weatherlink.com 1.10,2013-09-20 04:35:00,
2013-09-19 23:50:00,68.1,66.0,29.88,WNW,298,0.0,3.0,94,0.06,,,0.11,weatherlink.com 1.10,2013-09-20 04:50:00,